Haines, AK

3:44 AM AKST on November 21, 2017 (GMT -0900)
Haines

Weather History for PAHN - December, 2011

Change the Weather History Date:

Saturday, December 24, 2011

  Actual Average Record
Temperature  
Mean Temperature 36 °F -  
Max Temperature 39 °F 30 °F 49 °F (1985)
Min Temperature 33 °F 22 °F 5 °F (2012)
Degree Days  
Heating Degree Days 29    
Moisture  
Dew Point 34 °F    
Average Humidity 93    
Maximum Humidity 100    
Minimum Humidity 86    
Precipitation  
Precipitation 0.97 in - - ()
Sea Level Pressure  
Sea Level Pressure 29.53 in    
Wind  
Wind Speed 14 mph (East)    
Max Wind Speed 23 mph    
Max Gust Speed 38 mph    
Visibility 8 miles    
Events Rain , Snow    
Averages and records for this station are not official NWS values.
T = Trace of Precipitation, MM = Missing Value Source: NWS Daily Summary

Daily Weather History Graph

Daily Weather History Graph

Search for Another Location

Airport or City:

Trip Planner

Search our weather history database for the weather conditions in past years. The results will help you decide how hot, cold, wet, or windy it might be!

Date:

Astronomy

Dec. 24, 2011 Rise Set
Actual Time 8:58 AM AKST 3:05 PM AKST
Civil Twilight 8:02 AM AKST 4:00 PM AKST
Nautical Twilight 7:07 AM AKST 4:55 PM AKST
Astronomical Twilight 6:17 AM AKST 5:46 PM AKST
Moon 8:51 AM AKST (12/24) 3:30 PM AKST (12/24)
Length of Visible Light 7h 57m
Length of Day
6h 07m
New Moon, 0% of the Moon is Illuminated
Dec 24
New Moon
Dec 31
First Quarter
Jan 8
Full
Jan 16
Last Quarter
Jan 22
New

Hourly Weather History & Observations

Time (AKST) Temp. Windchill Dew Point Humidity Pressure Visibility Wind Dir Wind Speed Gust Speed Precip Events Conditions
12:54 AM 37.0 °F 25.9 °F 35.1 °F 93% 29.70 in 5.0 mi ESE 23.0 mph 36.8 mph 0.09 in Rain Rain
1:02 AM 37.4 °F 26.9 °F 33.8 °F 87% 29.69 in 5.0 mi ESE 20.7 mph 35.7 mph 0.02 in Rain Rain
1:28 AM 37.4 °F 27.8 °F 35.6 °F 93% 29.69 in 9.0 mi ESE 17.3 mph 26.5 mph 0.04 in Rain Light Rain
1:54 AM 37.9 °F 30.5 °F 34.0 °F 86% 29.70 in 10.0 mi ESE 11.5 mph 29.9 mph 0.05 in Rain Light Rain
2:54 AM 37.9 °F 29.2 °F 35.1 °F 89% 29.70 in 10.0 mi East 15.0 mph 25.3 mph 0.01 in Rain Light Rain
3:05 AM 37.4 °F 27.8 °F 35.6 °F 93% 29.69 in 10.0 mi East 17.3 mph 28.8 mph 0.00 in Rain Light Rain
3:54 AM 37.9 °F 29.2 °F 35.1 °F 89% 29.70 in 10.0 mi East 15.0 mph 38.0 mph 0.00 in   Mostly Cloudy
4:10 AM 39.2 °F 29.6 °F 35.6 °F 87% 29.70 in 10.0 mi East 19.6 mph 38.0 mph N/A   Mostly Cloudy
4:42 AM 37.4 °F 26.9 °F 33.8 °F 87% 29.71 in 10.0 mi ESE 20.7 mph 32.2 mph N/A   Overcast
4:54 AM 37.9 °F 28.9 °F 34.0 °F 86% 29.73 in 10.0 mi ESE 16.1 mph 29.9 mph N/A   Mostly Cloudy
5:50 AM 37.4 °F 28.5 °F 35.6 °F 93% 29.72 in 10.0 mi East 15.0 mph 34.5 mph 0.00 in Rain Light Rain
5:54 AM 37.9 °F 29.2 °F 35.1 °F 89% 29.73 in 10.0 mi ESE 15.0 mph 34.5 mph 0.00 in Rain Light Rain
6:12 AM 37.4 °F 29.8 °F 35.6 °F 93% 29.72 in 10.0 mi ESE 11.5 mph 21.9 mph 0.00 in Rain Light Rain
6:40 AM 37.4 °F 29.8 °F 35.6 °F 93% 29.73 in 10.0 mi ESE 11.5 mph 26.5 mph 0.00 in Rain Light Rain
6:54 AM 37.9 °F 30.9 °F 35.1 °F 89% 29.74 in 10.0 mi East 10.4 mph 19.6 mph 0.00 in Rain Light Rain
7:33 AM 37.4 °F 30.8 °F 35.6 °F 93% 29.72 in 10.0 mi East 9.2 mph 20.7 mph 0.00 in   Mostly Cloudy
7:54 AM 37.9 °F 30.9 °F 35.1 °F 89% 29.72 in 10.0 mi East 10.4 mph 18.4 mph 0.00 in   Overcast
8:54 AM 37.0 °F 29.3 °F 35.1 °F 93% 29.70 in 8.0 mi East 11.5 mph 21.9 mph 0.02 in Rain Light Rain
9:54 AM 37.0 °F 29.3 °F 34.0 °F 89% 29.67 in 10.0 mi ENE 11.5 mph 21.9 mph 0.08 in Rain Light Rain
10:54 AM 37.0 °F 29.3 °F 35.1 °F 93% 29.63 in 10.0 mi ENE 11.5 mph 18.4 mph 0.02 in   Overcast
11:06 AM 37.4 °F 30.8 °F 35.6 °F 93% 29.61 in 10.0 mi ENE 9.2 mph - N/A   Overcast
11:31 AM 37.4 °F - 33.8 °F 87% 29.58 in 10.0 mi Calm Calm - N/A   Overcast
11:43 AM 37.4 °F 32.1 °F 33.8 °F 87% 29.56 in 10.0 mi ENE 6.9 mph - N/A   Overcast
11:54 AM 37.0 °F 34.5 °F 33.1 °F 86% 29.55 in 10.0 mi East 3.5 mph - N/A   Overcast
12:54 PM 36.0 °F 33.3 °F 34.0 °F 93% 29.49 in 10.0 mi Variable 3.5 mph - 0.00 in Rain Light Rain
1:35 PM 35.6 °F 32.8 °F 33.8 °F 93% 29.44 in 10.0 mi Variable 3.5 mph - 0.00 in Rain Light Rain
1:54 PM 36.0 °F 32.1 °F 34.0 °F 93% 29.44 in 10.0 mi ENE 4.6 mph - 0.00 in   Overcast
2:54 PM 35.1 °F 31.0 °F 34.0 °F 96% 29.42 in 10.0 mi East 4.6 mph - 0.01 in Rain Light Rain
3:35 PM 35.6 °F 26.2 °F 33.8 °F 93% 29.41 in 10.0 mi SE 15.0 mph 26.5 mph 0.01 in Rain Light Rain
3:52 PM 33.8 °F 23.9 °F 32.0 °F 93% 29.42 in 6.0 mi ESE 15.0 mph 28.8 mph 0.02 in Snow Light Snow
3:54 PM 34.0 °F 25.5 °F 32.0 °F 92% 29.43 in 4.0 mi ESE 11.5 mph 28.8 mph 0.02 in Snow Light Snow
3:58 PM 33.8 °F 24.8 °F 33.8 °F 100% 29.42 in 3.0 mi ESE 12.7 mph - 0.01 in Snow Light Snow
4:05 PM 33.8 °F 24.3 °F 33.8 °F 100% 29.41 in 4.0 mi ESE 13.8 mph 18.4 mph 0.01 in Snow Light Snow
4:18 PM 33.8 °F 22.8 °F 33.8 °F 100% 29.41 in 5.0 mi SE 18.4 mph - 0.02 in Snow Light Snow
4:33 PM 33.8 °F 24.3 °F 32.0 °F 93% 29.41 in 6.0 mi SE 13.8 mph - 0.02 in Snow Light Snow
4:54 PM 33.1 °F 26.1 °F 33.1 °F 100% 29.43 in 4.0 mi ESE 8.1 mph - 0.03 in Snow Light Snow
5:19 PM 33.8 °F 24.3 °F 33.8 °F 100% 29.40 in 6.0 mi SE 13.8 mph - 0.01 in Snow Light Snow
5:35 PM 33.8 °F 24.8 °F 33.8 °F 100% 29.40 in 8.0 mi SE 12.7 mph - 0.01 in Rain Light Rain
5:54 PM 34.0 °F 26.6 °F 34.0 °F 100% 29.40 in 6.0 mi ESE 9.2 mph - 0.02 in Rain Light Rain
6:52 PM 35.6 °F 28.0 °F 33.8 °F 93% 29.38 in 5.0 mi East 10.4 mph 18.4 mph 0.05 in Rain Rain
6:54 PM 36.0 °F 28.0 °F 34.0 °F 93% 29.38 in 6.0 mi East 11.5 mph 20.7 mph 0.05 in Rain Light Rain
7:54 PM 36.0 °F 27.5 °F 34.0 °F 93% 29.36 in 4.0 mi ENE 12.7 mph 23.0 mph 0.14 in Rain Heavy Rain
8:41 PM 35.6 °F 26.2 °F 33.8 °F 93% 29.36 in 4.0 mi ENE 15.0 mph 24.2 mph 0.16 in Rain Heavy Rain
8:54 PM 36.0 °F 28.0 °F 34.0 °F 93% 29.37 in 4.0 mi East 11.5 mph 24.2 mph 0.20 in Rain Heavy Rain
9:17 PM 35.6 °F 27.1 °F 33.8 °F 93% 29.37 in 2.0 mi East 12.7 mph 21.9 mph 0.08 in Snow Light Snow
9:42 PM 35.6 °F 28.0 °F 33.8 °F 93% 29.38 in 3.0 mi ENE 10.4 mph 23.0 mph 0.17 in Snow Light Snow
9:54 PM 35.1 °F 27.4 °F 33.1 °F 92% 29.39 in 4.0 mi East 10.4 mph 23.0 mph 0.19 in Snow Light Snow
10:54 PM 37.0 °F 28.9 °F 35.1 °F 93% 29.39 in 10.0 mi East 12.7 mph 24.2 mph 0.04 in Rain Light Rain
11:02 PM 37.4 °F 28.5 °F 35.6 °F 93% 29.38 in 10.0 mi East 15.0 mph 20.7 mph 0.00 in Rain Light Rain
11:20 PM 37.4 °F 29.3 °F 35.6 °F 93% 29.38 in 9.0 mi East 12.7 mph 29.9 mph 0.00 in Rain Light Rain
11:38 PM 37.4 °F 30.3 °F 35.6 °F 93% 29.39 in 10.0 mi East 10.4 mph 27.6 mph 0.00 in Rain Light Rain
11:54 PM 37.9 °F 31.5 °F 36.0 °F 93% 29.40 in 10.0 mi East 9.2 mph 19.6 mph 0.00 in Rain Light Rain